Location: Newark
(53.3333°N, 83.7500°E)
Time: 07:16:02
(UTC+00:00)

SR - Pass Details

Date: 12 November 2019
Orbit: 573 x 882 km, 66.7° (Epoch: 15 December)

Event Time Altitude Azimuth Distance (km) Brightness Sun altitude
Rises 12:56:24 0° 252° (WSW) 3,254 ? -21.1°
Reaches altitude 10° 12:58:54 10° 260° (W) 2,375 ? -21.5°
Maximum altitude 13:04:02 38° 328° (NNW) 1,267 ? -22.3°
Enters shadow 13:07:35 20° 25° (NNE) 1,916 ? -22.8°
